Location: Carrières
(48.9495°N, 2.0407°E)
Time: 02:39:57
(UTC+00:00)

Transit 2A - Pass Details

Date: 27 April 2024
Orbit: 594 x 957 km, 66.7° (Epoch: 19 May)

Event Time Altitude Azimuth Distance (km) Brightness Sun altitude
Rises 14:31:48 0° 313° (NW) 3,326 9.5 41.9°
Reaches altitude 10° 14:34:42 10° 298° (WNW) 2,455 9.1 41.5°
Maximum altitude 14:38:49 21° 252° (WSW) 1,880 9.6 40.9°
Drops below altitude 10° 14:43:08 10° 206° (SSW) 2,597 9.6 40.3°
Sets 14:46:20 0° 191° (S) 3,576 9.9 39.8°
